Change the Weather History Date:

Saturday, March 1, 2014

  Actual Average Record
Temperature  
Mean Temperature 18 °F -  
Max Temperature 34 °F 37 °F 55 °F (1985)
Min Temperature 3 °F 20 °F 3 °F (2014)
Degree Days  
Heating Degree Days 46    
Moisture  
Dew Point 7 °F    
Average Humidity 56    
Maximum Humidity 73    
Minimum Humidity 32    
Precipitation  
Precipitation 0.00 in - - ()
Sea Level Pressure  
Sea Level Pressure 30.29 in    
Wind  
Wind Speed 5 mph (SSW)    
Max Wind Speed 13 mph    
Max Gust Speed 21 mph    
Visibility 10 miles    
Events      
Averages and records for this station are not official NWS values.
T = Trace of Precipitation, MM = Missing Value Source: NWS Daily Summary

Daily Weather History Graph

Daily Weather History Graph

Search for Another Location

Airport or City:

Trip Planner

Search our weather history database for the weather conditions in past years. The results will help you decide how hot, cold, wet, or windy it might be!

Date:

Astronomy

Mar. 01, 2014 Rise Set
Actual Time 6:19 AM EST 5:33 PM EST
Civil Twilight 5:51 AM EST 6:01 PM EST
Nautical Twilight 5:18 AM EST 6:34 PM EST
Astronomical Twilight 4:45 AM EST 7:06 PM EST
Moon 6:09 AM EST (3/1) 6:18 PM EST (3/1)
Length of Visible Light 12h 10m
Length of Day
11h 14m
New Moon, 0% of the Moon is Illuminated
Mar 1
New Moon
Mar 8
First Quarter
Mar 16
Full
Mar 23
Last Quarter
Mar 30
New

Hourly Weather History & Observations

Time (EST) Temp. Windchill Dew Point Humidity Pressure Visibility Wind Dir Wind Speed Gust Speed Precip Events Conditions
12:53 AM 3.9 °F -3.4 °F -5.1 °F 66% 30.43 in 10.0 mi NNW 3.5 mph - N/A   Clear
1:53 AM 6.1 °F - -4.0 °F 63% 30.43 in 10.0 mi Calm Calm - N/A   Clear
2:53 AM 5.0 °F - -4.0 °F 66% 30.43 in 10.0 mi Calm Calm - N/A   Clear
3:53 AM 5.0 °F - -5.1 °F 63% 30.41 in 10.0 mi Calm Calm - N/A   Clear
4:53 AM 3.0 °F -6.4 °F -6.0 °F 66% 30.41 in 10.0 mi NW 4.6 mph - N/A   Clear
5:53 AM 3.9 °F - -2.9 °F 73% 30.41 in 10.0 mi Calm Calm - N/A   Clear
6:53 AM 6.1 °F - -2.0 °F 69% 30.42 in 10.0 mi Calm Calm - N/A   Clear
7:53 AM 9.0 °F - -0.9 °F 64% 30.43 in 10.0 mi Calm Calm - N/A   Clear
8:53 AM 18.0 °F - -2.0 °F 41% 30.41 in 10.0 mi Calm Calm - N/A   Clear
9:53 AM 23.0 °F 12.4 °F -2.9 °F 32% 30.40 in 10.0 mi South 10.4 mph - N/A   Clear
10:53 AM 25.0 °F 14.8 °F 3.0 °F 39% 30.38 in 10.0 mi SSW 10.4 mph - N/A   Clear
11:53 AM 27.0 °F 16.7 °F 3.9 °F 37% 30.33 in 10.0 mi South 11.5 mph - N/A   Clear
12:53 PM 30.0 °F 20.0 °F 7.0 °F 38% 30.28 in 10.0 mi SSW 12.7 mph - N/A   Clear
1:53 PM 33.1 °F 24.4 °F 10.9 °F 40% 30.25 in 10.0 mi SW 11.5 mph 20.7 mph N/A   Clear
2:53 PM 33.1 °F - 12.9 °F 43% 30.22 in 10.0 mi North - - N/A   Clear
3:53 PM 33.1 °F 24.9 °F 14.0 °F 46% 30.20 in 10.0 mi SSW 10.4 mph - N/A   Overcast
4:53 PM 34.0 °F 26.6 °F 18.0 °F 52% 30.18 in 10.0 mi South 9.2 mph - N/A   Overcast
5:53 PM 32.0 °F 24.2 °F 19.0 °F 59% 30.17 in 10.0 mi South 9.2 mph - N/A   Mostly Cloudy
6:53 PM 33.1 °F 24.9 °F 19.9 °F 59% 30.17 in 10.0 mi SSW 10.4 mph - N/A   Clear
7:53 PM 32.0 °F 24.8 °F 21.0 °F 64% 30.16 in 10.0 mi South 8.1 mph - N/A   Clear
8:53 PM 32.0 °F 22.5 °F 21.0 °F 64% 30.14 in 10.0 mi SW 12.7 mph - N/A   Overcast
9:53 PM 32.0 °F 23.0 °F 21.0 °F 64% 30.13 in 10.0 mi SW 11.5 mph - N/A   Overcast
10:53 PM 30.9 °F 24.3 °F 21.0 °F 67% 30.10 in 10.0 mi SW 6.9 mph - N/A   Clear
11:53 PM 30.9 °F 23.5 °F 19.9 °F 64% 30.08 in 10.0 mi SW 8.1 mph - N/A   Partly Cloudy